Flag for U.S.A. Weather past 2 weeks in Paterson, New Jersey, U.S.A.

Now
59 °F

Sunny.


Feels Like: 59 °F
Forecast: 35 / 59 °F
Wind: 5 mph from Northwest

Location: Essex County Airport

Current Time: Apr 25, 2015 at 7:28:45 PM

Latest Report: Apr 25, 2015 at 6:53 PM


Visibility: 10 mi

Pressure: 29.71 "Hg

Humidity: 22%

Dew point: 20 °F

Location of PatersonLocation

Historic Weather in Paterson — Graph

°F

Paterson temperature yesterday

Maximum temperature yesterday: 50 °F (at 3:53 PM)
Minimum temperature yesterday: 37 °F (at 5:53 AM)
Average temperature yesterday: 42 °F

Past Weeks' High & Low Weather Summary

 TemperatureHumidityPressure
High81 °F (Apr 18, 4:53 PM)100% (Apr 21, 12:03 AM)30.50 "Hg (Apr 21, 12:03 AM)
Low33 °F (Apr 12, 5:53 AM)12% (Apr 15, 4:53 PM)29.54 "Hg (Apr 22, 2:53 PM)
Average54 °F51%30.02 "Hg
* Reported Apr 10 5:53 PM — Apr 25 5:53 PM, Paterson, Weather by CustomWeather, © 2015

Note: Actual official high and low records may vary slightly from our data, if they occured in-between our weather recording intervals... More about our weather records

Advertising

Paterson weather history for previous 24 hours

 ConditionsComfort  
Time TempWeatherWind HumidityBarometerVisibility
5:53 PM
Sat, Apr 25
59 °FSunny.8 mph23%29.71 "Hg10 mi
4:53 PM59 °FSunny.6 mph23%29.72 "Hg10 mi
3:53 PM58 °FSunny.N/A25%29.74 "Hg10 mi
2:53 PM57 °FSunny.10 mph26%29.77 "Hg10 mi
1:53 PM55 °FSunny.6 mph28%29.81 "Hg10 mi
12:53 PM54 °FSunny.9 mph30%29.84 "Hg10 mi
11:53 AM50 °FSunny.10 mph33%29.87 "Hg10 mi
10:53 AM48 °FSunny.6 mph37%29.90 "Hg10 mi
9:53 AM45 °FSunny.12 mph40%29.91 "Hg10 mi
8:53 AM42 °FSunny.10 mph45%29.93 "Hg10 mi
7:53 AM39 °FSunny.9 mph50%29.95 "Hg10 mi
6:53 AM36 °FClear.3 mph59%29.95 "Hg10 mi
5:53 AM34 °FClear.No wind64%29.95 "Hg10 mi
4:53 AM36 °FClear.No wind57%29.94 "Hg10 mi
3:53 AM36 °FClear.5 mph52%29.93 "Hg10 mi
2:53 AM36 °FClear.6 mph54%29.93 "Hg10 mi
1:53 AM36 °FClear.5 mph54%29.94 "Hg10 mi
12:53 AM37 °FClear.5 mph50%29.96 "Hg10 mi
11:53 PM
Fri, Apr 24
38 °FClear.8 mph48%29.96 "Hg10 mi
10:53 PM39 °FClear.7 mph46%29.96 "Hg10 mi
9:53 PM39 °FClear.7 mph46%29.96 "Hg10 mi
8:53 PM41 °FClear.6 mph41%29.96 "Hg10 mi
Weather by CustomWeather, © 2015

See weather overviewHow to use our weather pages